SBFZSBBE

Guest
Details From SBFZ - Pinto Martins
To SBBE - Val De Caes Intl
Flight Number -
Tags decoded
Created
Modified
Stats Distance 614 nm / 1,137 km
Max Altitude 0 ft / 0 m
Waypoints 3
Social Downloads 2
Likes 0
Share VATSIM

Download

Looking for another format? Having issues loading an existing format? Contact us
Advertisement - Login to hide

Notes

Requested: SBFZ UW33 JANES BE393 SBBE Unmatched points: UW33 BE393

Route

SBFZ JANES SBBE

ID Type Via Altitude Latitude Longitude Leg Dist Tot Dist Heading (true) Name
O SBFZ APT - 0 ft / 0 m -3.77628˚ -38.53256˚ - 0 nm - Pinto Martins
JANES FIX - 0 ft / 0 m -1.56750˚ -47.83817˚ 573 nm 573 nm 283° / 284° -
O SBBE APT - 0 ft / 0 m -1.38078˚ -48.47619˚ 39 nm 613 nm 286° / 286° Val De Caes Intl

Altitude Profile

Weather

Temperature
Clouds and Precipitation
Forecast for 2017-03-31 00:00 UTC. Updated an hour ago
Winds

SBFZ

Details ICAO SBFZ (FOR)
Name Pinto Martins
Region Brazil
Timezone America/Fortaleza (UTC-3.0)
Stats Elevation 82 ft / 25 m (AMSL)
Location -3.776283° -38.532556°
Runways 1
Magnetic Variation 21.152° W

METAR

SBFZ 302200Z 17003KT 9999 SCT020 BKN100 27/26 Q1010

Decode

TAF

TAF SBFZ 301530Z 3018/3118 08010KT 8000 SCT025 TN26/3108Z TX30/3116Z BECMG 3101/3103 06005KT PROB40 TEMPO 3105/3110 6000 BKN015 BECMG 3110/3112 07010KT RMK PEU

Decode

Departure Runways

ID Width Length Bearing (true) Bearing (mag) Surface Threshold Offset Overrun Length
13 148 ft / 45 m 8,360 ft / 2,548 m 104.88° 126.03° Asphalt 0 ft / 0 m 195 ft / 59 m
31 148 ft / 45 m 8,360 ft / 2,548 m 284.88° 306.03° Asphalt 0 ft / 0 m 125 ft / 38 m

SBBE

Details ICAO SBBE (BEL)
Name Val De Caes Intl
Region Brazil
Timezone America/Belem (UTC-3.0)
Stats Elevation 54 ft / 16 m (AMSL)
Location -1.380776° -48.476189°
Runways 2
Magnetic Variation 20.128° W

METAR

SBBE 302200Z 07001KT 9999 SCT020 FEW025TCU BKN100 24/24 Q1009 RETS

Decode

TAF

TAF TAF SBBE 301600Z 3018/3118 03008KT 9999 BKN025 FEW030TCU TN24/3107Z TX31/3116Z TEMPO 3018/3021 5000 TSRA BKN015 FEW030CB BECMG 3021/3023 03005KT SCT020 BECMG 3101/3103 06003KT CAVOK BECMG 3108/3110 07005KT SCT015 BECMG 3114/3116 06010KT BKN025 FEW030TCU RMK PEO

Decode

Destination Runways

ID Width Length Bearing (true) Bearing (mag) Surface Threshold Offset Overrun Length
02 148 ft / 45 m 6,023 ft / 1,836 m 4.48° 24.61° Asphalt 0 ft / 0 m 194 ft / 59 m
06 148 ft / 45 m 9,215 ft / 2,809 m 45.30° 65.43° Asphalt 0 ft / 0 m 0 ft / 0 m
20 148 ft / 45 m 6,023 ft / 1,836 m 184.48° 204.61° Asphalt 0 ft / 0 m 194 ft / 59 m
24 148 ft / 45 m 9,215 ft / 2,809 m 225.30° 245.43° Asphalt 0 ft / 0 m 197 ft / 60 m

Approach Navaids

Runway Type Ident Frequency Range Bearing (true) Bearing (mag) Slope Elevation
06 Localiser IBE 109.30 MHz 18 nm / 33 km 45.72° 65.85° - 48 ft / 15 m (AMSL)
06 Glidescope IBE 109.30 MHz 10 nm / 19 km 45.30° 65.43° 3.00° 48 ft / 15 m (AMSL)
06 DME IBE 109.30 MHz 18 nm / 33 km - - - 48 ft / 15 m (AMSL)

Popular Alternatives